Ravenna, OH

11:17 PM EST on January 22, 2018 (GMT -0500)
Ravenna

Weather History for KPOV - March, 2013

Change the Weather History Date:

Thursday, March 28, 2013

  Actual Average (KCAK) Record (KCAK)
Temperature  
Mean Temperature 37 °F -  
Max Temperature 42 °F 54 °F 80 °F (1910)
Min Temperature 32 °F 33 °F 12 °F (1982)
Degree Days  
Heating Degree Days 28    
Moisture  
Dew Point 29 °F    
Average Humidity 75    
Maximum Humidity 100    
Minimum Humidity 58    
Precipitation  
Precipitation 0.01 in - - ()
Sea Level Pressure  
Sea Level Pressure 30.19 in    
Wind  
Wind Speed 8 mph (WNW)    
Max Wind Speed 13 mph    
Max Gust Speed 18 mph    
Visibility 9 miles    
Events Snow    
Averages and records for this station are not official NWS values.
T = Trace of Precipitation, MM = Missing Value Source: NWS Daily Summary

Daily Weather History Graph

Daily Weather History Graph

Search for Another Location

Airport or City:

Trip Planner

Search our weather history database for the weather conditions in past years. The results will help you decide how hot, cold, wet, or windy it might be!

Date:

Astronomy

Mar. 28, 2013 Rise Set
Actual Time 7:14 AM EDT 7:46 PM EDT
Civil Twilight 6:46 AM EDT 8:13 PM EDT
Nautical Twilight 6:14 AM EDT 8:46 PM EDT
Astronomical Twilight 5:40 AM EDT 9:20 PM EDT
Moon 9:37 PM EDT (3/28) 7:40 AM EDT (3/28)
Length of Visible Light 13h 26m
Length of Day
12h 31m
Full, 98% of the Moon is Illuminated
Mar 28
Full
Apr 3
Last Quarter
Apr 10
New
Apr 18
First Quarter
Apr 25
Full

Hourly Weather History & Observations

Time (EDT) Temp. Windchill Dew Point Humidity Pressure Visibility Wind Dir Wind Speed Gust Speed Precip Events Conditions
12:16 AM 36.0 °F 28.0 °F 29.3 °F 77% 30.13 in 10.0 mi West 11.5 mph - N/A Snow Light Snow
12:36 AM 34.7 °F 26.4 °F 30.7 °F 85% 30.14 in 4.0 mi West 11.5 mph - N/A Snow Light Snow
12:56 AM 34.2 °F 26.2 °F 31.6 °F 90% 30.13 in 7.0 mi West 10.4 mph - N/A Snow Light Snow
1:16 AM 34.2 °F 26.2 °F 31.8 °F 91% 30.13 in 5.0 mi West 10.4 mph - N/A Snow Light Snow
1:36 AM 34.2 °F 26.8 °F 32.0 °F 92% 30.13 in 10.0 mi West 9.2 mph - N/A Snow Light Snow
1:56 AM 34.0 °F 27.2 °F 32.0 °F 92% 30.13 in 10.0 mi West 8.1 mph - 0.01 in   Overcast
2:16 AM 34.3 °F 27.7 °F 30.6 °F 86% 30.13 in 10.0 mi WNW 8.1 mph - N/A Snow Light Snow
2:36 AM 35.1 °F 27.9 °F 28.4 °F 77% 30.14 in 10.0 mi WNW 9.2 mph 18.4 mph N/A   Overcast
2:57 AM 34.7 °F 28.1 °F 28.0 °F 77% 30.14 in 10.0 mi WNW 8.1 mph - N/A Snow Light Snow
3:16 AM 34.0 °F 26.0 °F 29.1 °F 82% 30.14 in 3.0 mi WNW 10.4 mph - N/A Snow Light Snow
3:36 AM 33.3 °F 25.1 °F 30.0 °F 88% 30.13 in 5.0 mi West 10.4 mph - N/A Snow Light Snow
3:56 AM 33.1 °F 26.9 °F 30.6 °F 90% 30.13 in 10.0 mi WNW 6.9 mph - N/A Snow Light Snow
4:16 AM 32.9 °F 26.7 °F 30.7 °F 92% 30.13 in 5.0 mi WNW 6.9 mph - N/A Snow Light Snow
4:36 AM 32.4 °F 26.9 °F 32.0 °F 99% 30.14 in 4.0 mi WNW 5.8 mph - N/A Snow Light Snow
4:56 AM 32.4 °F 26.0 °F 32.5 °F 100% 30.14 in 5.0 mi West 6.9 mph - N/A Snow Light Snow
5:16 AM 32.4 °F 26.0 °F 32.5 °F 100% 30.14 in 7.0 mi West 6.9 mph - N/A Snow Light Snow
5:36 AM 32.4 °F 26.0 °F 32.4 °F 100% 30.14 in 7.0 mi West 6.9 mph - N/A Snow Light Snow
5:57 AM 32.4 °F 26.0 °F 32.4 °F 100% 30.14 in 10.0 mi West 6.9 mph - N/A   Overcast
6:16 AM 32.5 °F 27.1 °F 31.8 °F 97% 30.15 in 10.0 mi WNW 5.8 mph - N/A Snow Light Snow
6:36 AM 32.7 °F 28.3 °F 29.3 °F 87% 30.15 in 10.0 mi WNW 4.6 mph - N/A   Overcast
6:56 AM 32.9 °F 26.7 °F 28.8 °F 85% 30.15 in 10.0 mi West 6.9 mph - N/A   Overcast
7:16 AM 33.1 °F 26.9 °F 28.2 °F 82% 30.16 in 10.0 mi West 6.9 mph - N/A   Overcast
7:36 AM 33.1 °F 25.5 °F 27.7 °F 81% 30.17 in 10.0 mi WNW 9.2 mph - N/A   Overcast
7:56 AM 33.3 °F 26.4 °F 27.5 °F 79% 30.18 in 10.0 mi WNW 8.1 mph - N/A   Overcast
8:16 AM 33.4 °F 26.6 °F 27.1 °F 78% 30.18 in 10.0 mi WNW 8.1 mph - N/A   Overcast
8:36 AM 33.8 °F 26.4 °F 27.1 °F 77% 30.18 in 10.0 mi West 9.2 mph - N/A   Overcast
8:56 AM 33.8 °F 27.0 °F 26.8 °F 75% 30.19 in 10.0 mi WNW 8.1 mph - N/A   Overcast
9:16 AM 33.8 °F 26.4 °F 26.6 °F 75% 30.19 in 10.0 mi West 9.2 mph - N/A   Overcast
9:36 AM 34.3 °F 28.4 °F 27.0 °F 74% 30.19 in 10.0 mi WNW 6.9 mph - N/A   Overcast
9:56 AM 34.3 °F 27.0 °F 26.4 °F 73% 30.20 in 10.0 mi WNW 9.2 mph 16.1 mph N/A   Overcast
10:16 AM 34.7 °F 26.9 °F 26.4 °F 72% 30.20 in 10.0 mi WNW 10.4 mph - N/A   Overcast
10:36 AM 35.1 °F 26.4 °F 27.0 °F 72% 30.21 in 10.0 mi West 12.7 mph - N/A   Overcast
10:56 AM 34.9 °F 26.2 °F 26.8 °F 72% 30.21 in 10.0 mi WNW 12.7 mph 18.4 mph N/A   Overcast
11:16 AM 35.4 °F 29.0 °F 26.8 °F 71% 30.22 in 10.0 mi WNW 8.1 mph - N/A   Overcast
11:34 AM 35.8 °F 29.4 °F 27.7 °F 72% 30.22 in 10.0 mi WNW 8.1 mph - N/A   Overcast
11:57 AM 36.0 °F 29.6 °F 27.3 °F 71% 30.22 in 10.0 mi WNW 8.1 mph - N/A   Overcast
12:16 PM 35.8 °F 28.8 °F 27.3 °F 71% 30.23 in 10.0 mi West 9.2 mph - N/A   Overcast
12:36 PM 35.8 °F 29.4 °F 27.5 °F 72% 30.23 in 10.0 mi WNW 8.1 mph - N/A   Overcast
12:57 PM 36.1 °F 29.9 °F 28.0 °F 72% 30.23 in 10.0 mi WNW 8.1 mph - N/A   Overcast
1:16 PM 37.4 °F 30.8 °F 28.2 °F 69% 30.22 in 10.0 mi West 9.2 mph - N/A   Overcast
1:36 PM 38.5 °F 31.6 °F 28.9 °F 69% 30.22 in 10.0 mi WNW 10.4 mph - N/A   Overcast
1:56 PM 40.5 °F 34.6 °F 30.2 °F 67% 30.22 in 10.0 mi WNW 9.2 mph - N/A   Overcast
2:16 PM 40.3 °F 33.4 °F 28.9 °F 64% 30.22 in 10.0 mi WNW 11.5 mph - N/A   Overcast
2:36 PM 39.9 °F 33.4 °F 28.6 °F 64% 30.22 in 10.0 mi WNW 10.4 mph 17.3 mph N/A   Overcast
2:56 PM 40.3 °F 33.9 °F 28.6 °F 63% 30.22 in 10.0 mi NW 10.4 mph 18.4 mph N/A   Overcast
3:16 PM 41.5 °F 35.9 °F 28.8 °F 60% 30.21 in 10.0 mi West 9.2 mph - N/A   Overcast
3:36 PM 41.4 °F 37.6 °F 28.8 °F 61% 30.21 in 10.0 mi WNW 5.8 mph - N/A   Overcast
3:57 PM 42.1 °F 36.6 °F 28.0 °F 58% 30.21 in 10.0 mi WNW 9.2 mph - N/A   Overcast
4:16 PM 42.6 °F 37.8 °F 28.9 °F 58% 30.21 in 10.0 mi WNW 8.1 mph - N/A   Overcast
4:36 PM 41.9 °F 36.9 °F 27.9 °F 58% 30.21 in 10.0 mi NW 8.1 mph - N/A   Overcast
4:56 PM 42.1 °F 37.1 °F 28.9 °F 60% 30.21 in 10.0 mi NNW 8.1 mph - N/A   Overcast
5:16 PM 41.9 °F 36.3 °F 28.6 °F 59% 30.21 in 10.0 mi WNW 9.2 mph - N/A   Overcast
5:36 PM 41.4 °F 37.6 °F 28.2 °F 60% 30.21 in 10.0 mi NW 5.8 mph - N/A   Overcast
5:57 PM 41.0 °F 36.4 °F 28.0 °F 60% 30.22 in 10.0 mi NW 6.9 mph - N/A   Overcast
6:16 PM 41.0 °F 35.2 °F 27.9 °F 60% 30.22 in 10.0 mi West 9.2 mph - N/A   Overcast
6:36 PM 40.6 °F 34.8 °F 27.7 °F 60% 30.22 in 10.0 mi WNW 9.2 mph - N/A   Overcast
6:57 PM 40.3 °F 36.3 °F 28.2 °F 62% 30.23 in 10.0 mi NW 5.8 mph - N/A   Overcast
7:16 PM 40.1 °F 36.9 °F 27.9 °F 62% 30.23 in 10.0 mi NW 4.6 mph - N/A   Overcast
7:36 PM 39.6 °F 37.4 °F 27.7 °F 62% 30.23 in 10.0 mi NW 3.5 mph - N/A   Overcast
7:57 PM 38.8 °F 35.4 °F 28.0 °F 65% 30.23 in 10.0 mi NNW 4.6 mph - N/A   Overcast
8:17 PM 38.5 °F - 28.2 °F 67% 30.24 in 10.0 mi Calm Calm - N/A   Overcast
8:36 PM 38.8 °F - 27.5 °F 64% 30.24 in 10.0 mi Calm Calm - N/A   Overcast
8:56 PM 37.8 °F - 28.4 °F 69% 30.24 in 10.0 mi Calm Calm - N/A   Overcast
9:16 PM 37.4 °F - 28.2 °F 69% 30.24 in 10.0 mi Calm Calm - N/A   Overcast
9:36 PM 37.2 °F - 29.3 °F 73% 30.24 in 10.0 mi Calm Calm - N/A   Overcast
9:56 PM 36.7 °F - 29.3 °F 75% 30.25 in 10.0 mi Calm Calm - N/A   Overcast
10:16 PM 36.5 °F - 29.3 °F 75% 30.25 in 10.0 mi Calm Calm - N/A   Overcast
10:36 PM 36.0 °F - 30.4 °F 80% 30.25 in 10.0 mi Calm Calm - N/A   Overcast
10:57 PM 35.8 °F - 30.4 °F 81% 30.25 in 10.0 mi Calm Calm - N/A   Overcast
11:16 PM 36.9 °F - 29.3 °F 74% 30.24 in 10.0 mi Calm Calm - N/A   Overcast
11:36 PM 36.9 °F - 30.0 °F 76% 30.24 in 10.0 mi Calm Calm - N/A   Overcast
11:57 PM 35.8 °F - 31.1 °F 83% 30.25 in 10.0 mi Calm Calm - N/A   Overcast